Flag for Germany Weather past 2 weeks in Stassfurt, Saxony-Anhalt, Germany

Now
50 °F

Low clouds.


Feels Like: 50 °F
Forecast: 44 / 53 °F
Wind: 3 mph from Northwest

Location: Magdeburg

Current Time: Oct 22, 2014 at 3:16:55 PM

Latest Report: Oct 22, 2014 at 3:00 PM


Visibility: 8 mi

Pressure: 29.71 "Hg

Humidity: 94%

Dew point: 49 °F

Location of StassfurtLocation

Historic Weather in Stassfurt — Graph

°F

Stassfurt temperature yesterday

Maximum temperature yesterday: 59 °F (at 1:00 PM)
Minimum temperature yesterday: 52 °F (at 4:00 AM)
Average temperature yesterday: 54 °F

Past Weeks' High & Low Weather Summary

 TemperatureHumidityPressure
High74 °F (Oct 19, 3:00 PM)98% (Oct 11, 7:00 AM)30.21 "Hg (Oct 11, 7:00 AM)
Low47 °F (Oct 22, 7:00 AM)54% (Oct 14, 4:00 PM)29.47 "Hg (Oct 21, 7:00 PM)
Average57 °F85%29.85 "Hg
* Reported Oct 7 2:00 PM — Oct 22 2:00 PM, Stassfurt, Weather by CustomWeather, © 2014

Note: Actual official high and low records may vary slightly from our data, if they occured in-between our weather recording intervals... More about our weather records

Advertising

Stassfurt weather history for previous 24 hours

 ConditionsComfort  
Time TempWeatherWind HumidityBarometerVisibility
2:00 PM
Oct 22
48 °FLight rain. Low clouds.5 mph94%29.69 "Hg3 mi
1:00 PM48 °FLight rain. Low clouds.8 mph91%29.67 "Hg2 mi
12:00 PM48 °FLight rain. Overcast.8 mph89%29.69 "Hg9 mi
10:00 AM47 °FLight rain. Overcast.8 mph85%29.69 "Hg5 mi
9:00 AM49 °FLight rain. Overcast.7 mph81%29.67 "Hg9 mi
8:00 AM48 °FOvercast.6 mph86%29.66 "Hg12 mi
7:00 AM47 °FLight rain. Overcast.5 mph89%29.65 "Hg22 mi
6:00 AM47 °FOvercast.7 mph82%29.63 "Hg22 mi
4:00 AM49 °FOvercast.7 mph75%29.63 "Hg19 mi
3:00 AM49 °FOvercast.7 mph77%29.63 "Hg19 mi
2:00 AM50 °FOvercast.7 mph78%29.61 "Hg19 mi
1:00 AM50 °FOvercast.6 mph81%29.58 "Hg19 mi
12:00 AM51 °FOvercast.6 mph83%29.53 "Hg19 mi
11:00 PM
Oct 21
52 °FOvercast.7 mph80%29.50 "Hg37 mi
10:00 PM53 °FOvercast.5 mph87%29.47 "Hg28 mi
9:00 PM53 °FRain. Overcast.3 mph90%29.47 "Hg5 mi
8:00 PM55 °FOvercast.3 mph79%29.47 "Hg25 mi
7:00 PM55 °FLight rain. Overcast.3 mph79%29.47 "Hg16 mi
6:00 PM55 °FOvercast.3 mph77%29.50 "Hg25 mi
4:00 PM55 °FOvercast.5 mph78%29.60 "Hg19 mi
3:00 PM57 °FLight rain. Overcast.6 mph70%29.64 "Hg19 mi
Weather by CustomWeather, © 2014

See weather overviewHow to use our weather pages